Tracking 18624 objects as of 26-April-2017
HD Live streaming from Space Station
objects crossing your sky now

INS-1A

Track INS-1A now!
10-day predictions


NORAD ID: 41949
Int'l Code: 2017-008B
Perigee: 501.5 km
Apogee: 515.9 km
Inclination: 97.5 °
Period: 94.6 minutes
Semi major axis: 6879 km
RCS: Unknown
Launch date: February 15, 2017
Source: India (IND)
Launch site: SIRHARIKOTA (SRI)
Your satellite tracking list
Your tracking list is empty





NASA's NSSDC Master Catalog

Two Line Element Set (TLE):
1 41949U 17008B   17114.94250684 +.00004403 +00000-0 +19906-3 0  9994
2 41949 097.4992 176.3443 0010524 025.7339 334.4418 15.21417622010434
Source of the keplerian elements: AFSPC